sat.trackr.live / text

‹ back to catalog

ONEWEB-0426

NORAD 50498 · 2021-132AF

PAYLOAD ACTIVE UNKNOWN

§ Identity

Operator
Country
UK
Launch date
2021-12-27
Launch site
TYMSC
Launch vehicle
Mass (kg)
RCS (m²)

Purposes: comms

External: N2YO · Heavens-Above · Gunter

§ Orbital elements

Epoch: 2026-09-20T03:39:57.340800Z

Period
109.20 min
Inclination
87.9171°
Eccentricity
0.0002512
Mean motion
13.18684717 rev/d
Perigee alt
1,187.8 km
Apogee alt
1,191.6 km
Semi-major
7,567.9 km
B*
4.2382e-5
RAAN
316.5781°
Arg perigee
108.3826°
Mean anomaly
251.7580°
Rev number
23,410

§ Raw data

ONEWEB-04261 50498U 21132AF  26263.15274700  .00000030  00000+0  42382-4 0  99952 50498  87.9171 316.5781 0002512 108.3826 251.7580 13.18684717234104

JSON: /api/v1/satellites/50498 · /tle

For live sub-satellite position, see the globe view (requires WebGL).

§ Visibility from observer

Set your observer location to see the next 7 days of passes ≥ 10°. The values pass through the URL so the page stays shareable.

No JS? Fill the form by hand. The geolocation button needs JavaScript.